TimeHST,TemperatureF,Dew PointF,Humidity,Sea Level PressureIn,VisibilityMPH,Wind Direction,Wind SpeedMPH,Gust SpeedMPH,PrecipitationIn,Events,Conditions,WindDirDegrees,DateUTC
12:53 AM,72.0,57.0,59,30.00,10.0,SE,8.1,-,N/A,,Clear,140,2013-01-07 10:53:00
1:53 AM,72.0,57.0,59,29.99,10.0,East,5.8,-,N/A,,Clear,100,2013-01-07 11:53:00
2:53 AM,70.0,57.0,63,29.97,10.0,North,4.6,-,N/A,,Clear,360,2013-01-07 12:53:00
3:53 AM,69.1,57.9,68,29.96,10.0,Calm,Calm,-,N/A,,Clear,0,2013-01-07 13:53:00
4:53 AM,69.1,57.9,68,29.97,10.0,ESE,3.5,-,N/A,,Clear,120,2013-01-07 14:53:00
5:53 AM,69.1,59.0,70,29.98,10.0,SE,5.8,-,N/A,,Clear,130,2013-01-07 15:53:00
6:53 AM,71.1,59.0,66,30.00,10.0,ESE,5.8,-,N/A,,Scattered Clouds,120,2013-01-07 16:53:00
7:53 AM,73.0,60.1,64,30.02,10.0,SE,5.8,-,N/A,,Mostly Cloudy,130,2013-01-07 17:53:00
8:53 AM,78.1,61.0,56,30.04,10.0,South,4.6,-,N/A,,Mostly Cloudy,170,2013-01-07 18:53:00
9:53 AM,79.0,61.0,54,30.04,10.0,SSE,6.9,-,N/A,,Mostly Cloudy,150,2013-01-07 19:53:00
10:53 AM,80.1,62.1,54,30.03,10.0,Calm,Calm,-,N/A,,Partly Cloudy,0,2013-01-07 20:53:00
11:53 AM,81.0,63.0,54,30.01,10.0,Variable,5.8,-,N/A,,Clear,0,2013-01-07 21:53:00
12:53 PM,80.1,63.0,56,29.97,10.0,WSW,6.9,-,N/A,,Clear,240,2013-01-07 22:53:00
1:53 PM,79.0,64.0,60,29.94,10.0,WSW,5.8,-,N/A,,Mostly Cloudy,240,2013-01-07 23:53:00
2:53 PM,78.1,64.0,62,29.92,10.0,WSW,6.9,-,N/A,,Mostly Cloudy,240,2013-01-08 00:53:00
3:53 PM,78.1,64.0,62,29.93,10.0,WSW,4.6,-,N/A,,Overcast,250,2013-01-08 01:53:00
4:53 PM,78.1,64.9,64,29.94,10.0,WSW,5.8,-,N/A,,Mostly Cloudy,250,2013-01-08 02:53:00
5:53 PM,77.0,64.9,66,29.95,10.0,West,5.8,-,N/A,,Overcast,260,2013-01-08 03:53:00
6:53 PM,75.9,66.0,71,29.97,10.0,West,9.2,-,N/A,,Mostly Cloudy,270,2013-01-08 04:53:00
7:37 PM,75.2,62.6,65,29.97,10.0,West,6.9,-,N/A,,Mostly Cloudy,270,2013-01-08 05:37:00
7:53 PM,75.9,61.0,60,29.98,10.0,West,3.5,-,N/A,,Scattered Clouds,260,2013-01-08 05:53:00
8:53 PM,75.9,62.1,62,29.98,10.0,Calm,Calm,-,N/A,,Partly Cloudy,0,2013-01-08 06:53:00
9:53 PM,73.9,64.0,71,29.98,10.0,SE,6.9,-,N/A,,Clear,130,2013-01-08 07:53:00
10:33 PM,73.4,64.4,73,29.98,10.0,SE,9.2,-,N/A,,Mostly Cloudy,130,2013-01-08 08:33:00
10:53 PM,73.0,64.0,73,29.98,10.0,SE,9.2,-,N/A,,Mostly Cloudy,130,2013-01-08 08:53:00
11:39 PM,73.4,64.4,73,29.96,10.0,SE,11.5,-,N/A,,Scattered Clouds,130,2013-01-08 09:39:00
11:53 PM,73.0,63.0,71,29.96,10.0,ESE,10.4,-,N/A,,Partly Cloudy,120,2013-01-08 09:53:00